This is the latest recevied weather packets stored in our database for station/object AD9CI-15. If no packets are shown the sender has not sent any weather packets the latest 10 day(s).
| Time | Temp. | Humidity | Pressure | Rain* | Wind** | Luminosity | Snow |
|---|---|---|---|---|---|---|---|
| 1778155494 | 5° C | 50% | 1014.2 hPa | - | - | - | - |
| 1778155462 | 5° C | 50% | 1014.2 hPa | - | - | - | - |
| 1778153657 | 3.89° C | 51% | 1014 hPa | - | - | - | - |
| 1778153542 | 3.89° C | 51% | 1014 hPa | - | - | - | - |
| 1778151898 | 3.33° C | 52% | 1013.6 hPa | - | - | - | - |
| 1778151862 | 3.33° C | 52% | 1013.6 hPa | - | - | - | - |
| 1778150044 | 3.33° C | 51% | 1013.8 hPa | - | - | - | - |
| 1778149942 | 3.33° C | 51% | 1013.8 hPa | - | - | - | - |
| 1778148315 | 3.89° C | 49% | 1013.7 hPa | - | - | - | - |
| 1778148263 | 3.89° C | 49% | 1013.7 hPa | - | - | - | - |
| 1778146445 | 4.44° C | 48% | 1013.6 hPa | - | - | - | - |
| 1778146343 | 4.44° C | 48% | 1013.6 hPa | - | - | - | - |
| 1778144789 | 4.44° C | 48% | 1013.7 hPa | - | - | - | - |
| 1778144662 | 4.44° C | 48% | 1013.7 hPa | - | - | - | - |
| 1778142844 | 4.44° C | 48% | 1013.6 hPa | - | - | - | - |
| 1778142743 | 4.44° C | 48% | 1013.6 hPa | - | - | - | - |
| 1778141161 | 5° C | 47% | 1013.5 hPa | - | - | - | - |
| 1778141063 | 5° C | 47% | 1013.5 hPa | - | - | - | - |
| 1778139234 | 5° C | 46% | 1013.9 hPa | - | - | - | - |
| 1778139143 | 5° C | 46% | 1013.9 hPa | - | - | - | - |
| 1778137599 | 5.56° C | 46% | 1014.1 hPa | - | - | - | - |
| 1778137561 | 5.56° C | 46% | 1014.1 hPa | - | - | - | - |
| 1778137462 | 5.56° C | 46% | 1014.1 hPa | - | - | - | - |
| 1778135632 | 5.56° C | 45% | 1014.2 hPa | - | - | - | - |
| 1778135542 | 5.56° C | 45% | 1014.2 hPa | - | - | - | - |
* Rain since midnight (hover to see other rain measurements)
** Current wind speed in m/s (hover to see current wind gust speed)